Disclaimer

Please do not use the information listed here in-flight or in-navigation, as they are not provided to us by the airports but are provided by volunteers, so they might be outdated.

Search


Regions


Airport information page

No radio frequency information is available.

Airport informations:
Latitude: 57° 47' 02.10" N
Longitude: 028° 23' 44.21" E
Elevation: 154 feet - 47 meters
Operating hours: Remarks
Operating agency: Civil government, landing fees and diplomatic clearance may be required
Timezone: UTC+3(+4DT) - Last Sunday in March to last Sunday in October
Fuel: N/A

Runway information:
01/19 - 6562 x 144 feet< - >2000 x 44 meters
01R/19L - 5578 x 144 feet< - >1700 x 44 meters

Recent METARs:
ULOO 171300Z 20008MPS P5000 -RASN OVC007 02/01 Q0982 R19/190051 NOSIG RMK QFE732
ULOO 171330Z 21007MPS P5000 -RASN OVC008 02/01 Q0982 R19/190051 NOSIG RMK QFE732
ULOO 171400Z AUTO 20008MPS 7000 // ///009/// 02/01 Q0982 RMK QFE732

Airport on the map: